カタログに戻る

ASTRA 2D

運用中通信GEO
NORAD 26638·PAYLOAD·🇱🇺 Luxembourg

打ち上げ Dec 20, 2000 から Guiana Space Centre

Loading…

TLE

最新Source: Space-Track

元期: Sep 14, 2026, 13:53 UTC

1 26638U 00081A   26257.57848103 -.00000100  00000-0  00000-0 0  9994
2 26638  10.6569  48.1191 0003723 187.4977 342.9756  0.99002942 53634

AllMySatでASTRA 2Dをリアルタイム追跡

Download on the App Store